SCP
0 1 1 0 0 0 0 0 0 0 0 0 0 0 0 0 0 0 0 -0 0 -0 -0 -0 -0 -0 -0 -0 -0 -0 -0 -0 -0 -0 -0 -0 -0 -0 -0 -0 -0 -0 -0
0 0 0 0 0 0 0 0 0 0 0 0 0 0 0 0 0 0 0 0 0 -0 -0 -0 -0 -0 -0 -0 -0 -0 -0 -0 -0 -0 -0 -0 -0 -0 -0 -0 -0 -0 -0
0 0 0 0 0 0 0 0 0 0 0 0 0 0 0 0 0 0 0 0 0 0 0 0 -0 0 0 -0 -0 -0 -0 -0 -0 -0 -0 -0 -0 -0 -0 -0 -0 -0 -0
0 0 0 0 0 0 0 0 0 0 0 0 0 0 0 0 0 0 0 0 -0 0 0 -0 -0 0 0 0 -0 0 -0 -0 -0 -0 -0 -0 -0 -0 -0 -0 -0 -0 -0
0 0 0 0 0 0 0 0 0 0 0 0 0 0 0 0 0 0 0 0 0 0 0 0 -0 -0 -0 -0 -0 0 -0 -0 -0 -0 -0 -0 -0 -0 -0 -0 -0 -0 -0
0 0 0 0 0 0 0 0 0 0 0 0 0 0 0 0 0 0 0 0 0 0 0 0 0 0 -0 -0 0 0 -0 -0 -0 -0 -0 -0 -0 -0 -0 -0 -0 -0 -0
0 0 0 0 0 0 0 0 0 0 0 0 0 0 0 0 0 0 0 0 0 0 0 0 0 0 0 0 0 -0 -0 0 0 0 0 -0 -0 -0 -0 -0 -0 -0 -0
0 0 0 0 0 0 0 0 0 0 0 0 0 0 0 0 0 0 0 0 0 0 0 0 0 0 0 0 0 -0 0 0 0 0 0 -0 0 0 -0 -0 -0 -0 -0
0 0 0 0 0 0 0 0 0 0 0 0 0 0 0 0 0 0 0 0 0 0 0 0 0 0 0 0 0 0 0 0 0 0 0 0 0 0 0 0 0 0 0
0 0 0 0 0 0 0 0 0 0 0 0 0 0 0 0 0 0 0 0 0 0 0 0 0 0 0 0 0 -0 -0 -0 0 0 0 0 0 0 0 0 0 0 0
0 0 0 0 0 0 0 0 0 0 0 0 0 0 0 0 0 0 0 0 0 0 0 0 0 0 0 0 0 0 -0 0 0 0 0 0 0 0 -0 -0 -0 0 0
0 -0 -0 0 0 0 0 0 0 0 0 0 0 0 0 0 0 0 0 0 0 0 0 0 0 0 0 0 0 0 0 -0 0 0 -0 0 0 0 0 -0 -0 0 0
0 0 -0 0 0 0 0 0 0 0 0 0 0 0 0 0 0 0 0 0 0 0 0 0 0 0 0 0 0 0 0 0 0 0 0 0 0 0 0 0 0 0 0
-0 -0 -0 0 0 0 0 0 0 0 0 0 0 0 0 0 0 0 0 0 0 0 0 0 0 0 0 0 0 0 0 0 0 0 0 0 0 0 0 0 0 0 0
-0 -0 0 0 0 0 0 0 0 0 0 0 0 0 0 0 0 0 0 0 0 0 0 0 0 0 0 0 0 0 0 0 0 0 0 0 0 0 0 0 0 0 0
0 -0 -0 0 0 0 0 0 0 0 0 0 0 0 0 0 0 0 0 0 0 0 0 0 0 0 0 0 0 0 0 0 0 0 0 0 0 0 0 0 0 0 0
-0 0 0 0 0 0 0 0 0 0 0 0 0 0 0 0 0 0 0 0 0 0 0 0 0 0 0 0 0 0 0 0 0 0 0 0 0 0 0 0 0 0 0
0 0 0 -0 -0 0 0 0 0 0 0 0 0 0 0 0 0 0 0 0 0 0 0 0 0 0 0 0 0 0 0 0 0 0 0 0 0 0 0 0 0 0 0
0 -0 -0 -0 -0 -0 -0 0 0 0 0 0 0 0 0 0 0 0 0 0 0 0 0 0 0 0 0 0 0 0 0 0 0 0 0 0 0 0 0 0 0 0 0
-0 -0 -0 -0 -0 -0 -0 -0 -0 0 0 0 0 0 0 0 0 0 0 0 0 0 0 0 0 0 0 0 0 0 0 0 0 0 0 0 0 0 0 0 0 0 0
-0 -0 -0 -0 -0 -0 0 0 0 0 0 0 0 0 0 0 0 0 0 0 0 0 0 0 0 0 0 0 0 0 0 0 0 0 0 0 0 0 0 0 0 0 0
-0 -0 -0 -0 -0 -0 -0 -0 -0 -0 0 0 0 0 0 0 0 0 0 0 0 0 0 0 0 0 0 0 0 0 0 0 0 0 0 0 0 0 0 0 0 0 0
0 0 0 0 0 0 0 0 0 0 0 0 0 0 0 0 0 0 0 0 0 0 0 0 0 0 0 0 0 0 0 0 0 0 0 0 0 0 0 0 0 0 0
0 0 0 0 0 0 0 0 -0 0 0 0 0 0 0 0 0 0 0 0 0 0 0 0 0 0 0 0 0 0 0 0 0 0 0 0 0 0 0 0 0 0 0
0 0 0 0 0 0 0 0 0 0 0 0 0 0 0 0 0 0 0 0 0 0 0 0 0 0 0 0 0 0 0 0 0 0 0 0 0 0 0 0 0 0 0
0 0 0 0 0 0 0 0 0 0 0 0 0 0 0 0 0 0 0 0 0 0 0 0 0 0 0 0 0 0 0 0 0 0 0 0 0 0 0 0 0 0 0
Wind_Speed_500mb
31 32 28 19 15 18 20 17 17 22 20 22 20 22 22 39 48 43 38 39 30 28 26 27 26 27 26 25 26 25 24 22 24 21 22 20 20 20 19 20 17 15 14
38 41 44 40 27 25 27 26 19 23 20 25 24 19 22 30 46 39 36 36 34 29 29 31 30 30 28 28 28 28 27 26 25 23 21 23 23 22 21 20 20 17 16
42 48 45 43 32 24 33 31 26 23 20 24 19 22 19 28 38 41 41 43 44 33 35 34 33 33 31 28 29 29 29 30 26 27 27 27 28 27 26 24 21 19 19
33 42 42 42 37 34 34 35 31 27 26 22 19 19 17 16 30 31 34 39 41 36 35 39 38 37 35 34 32 29 29 30 28 31 29 31 32 32 32 28 26 23 22
27 36 37 35 34 36 35 37 34 30 30 26 21 16 16 17 15 21 25 35 33 30 32 35 42 40 40 36 34 33 32 29 33 36 34 33 36 34 35 35 32 29 27
31 35 38 35 31 35 37 41 38 31 30 26 26 19 14 19 18 21 25 27 29 29 31 37 43 43 44 42 38 39 41 36 35 39 40 41 36 37 36 38 37 34 32
34 36 37 37 36 36 42 41 39 37 36 32 30 24 18 18 17 22 27 26 31 33 34 40 38 40 50 49 46 45 46 42 41 40 34 39 38 36 38 39 41 38 36
38 38 42 41 40 41 45 44 47 46 40 42 32 22 17 24 22 21 25 25 32 36 38 39 45 41 51 52 53 44 44 51 47 41 37 38 37 36 37 40 40 40 38
43 45 45 44 44 44 47 46 50 51 44 44 41 24 14 14 16 18 21 22 27 32 38 40 46 45 45 54 57 54 52 56 47 44 44 38 40 36 36 35 39 40 39
42 44 41 38 43 45 49 49 49 46 50 43 45 40 21 13 12 12 10 10 20 31 37 43 42 41 45 52 57 61 55 58 50 48 45 41 40 38 33 33 35 38 42
33 46 46 39 39 44 47 49 51 52 50 50 47 46 43 35 26 21 15 15 25 32 35 36 36 38 40 44 46 49 43 44 46 52 46 37 33 35 36 34 33 38 40
21 31 36 35 32 40 45 49 49 48 44 49 50 47 43 41 36 29 27 17 30 39 34 33 33 32 34 39 40 41 42 41 41 46 45 39 37 41 36 32 30 31 33
9 22 28 29 32 35 41 45 47 50 47 47 50 48 46 41 36 30 28 21 25 37 28 21 27 26 26 29 30 32 34 39 40 44 43 36 34 36 37 32 28 30 31
4 10 17 18 22 29 35 41 45 47 48 47 49 51 48 45 41 36 27 19 25 30 24 21 24 20 18 21 24 27 31 32 37 32 36 36 36 36 37 35 33 32 31
2 4 8 12 15 21 29 35 37 41 42 44 50 48 46 44 40 37 31 31 29 29 24 30 30 19 29 23 19 21 21 28 25 29 28 26 27 29 33 31 29 30 34
14 3 4 6 10 16 23 29 29 30 35 38 38 42 42 41 42 39 44 37 31 30 36 24 20 23 25 30 23 20 25 31 29 22 27 26 27 27 26 27 27 25 25
17 13 7 6 5 15 20 23 25 26 30 26 39 41 40 41 36 33 40 32 24 31 29 29 20 21 25 30 30 19 16 25 27 20 28 24 23 24 23 22 22 23 23
18 18 17 16 15 13 16 19 23 25 29 29 31 32 33 38 39 30 27 26 33 37 23 22 19 26 28 22 17 14 13 20 17 21 26 22 21 22 21 21 22 23 23
20 22 20 16 19 16 14 14 13 21 20 20 21 23 23 24 22 30 29 30 27 23 11 8 10 14 13 15 12 16 20 23 22 30 28 29 26 25 26 24 23 23 23
24 24 24 24 21 17 14 9 6 17 22 25 29 30 29 33 34 26 24 23 22 14 16 13 8 4 10 12 17 18 23 24 35 30 28 28 28 28 28 27 27 26 25
22 21 21 23 21 19 18 12 9 15 23 28 29 27 22 23 23 22 23 21 19 18 19 20 18 14 16 19 20 27 26 21 19 22 22 21 20 21 22 23 23 24 23
16 14 14 13 12 12 14 12 9 8 8 6 8 13 16 16 19 20 20 22 22 20 23 16 18 26 30 35 34 28 25 26 21 21 18 17 19 22 21 19 21 22 22
13 11 13 11 11 11 11 10 9 8 8 8 7 7 9 10 14 13 13 11 14 16 17 24 21 21 23 24 26 27 27 31 29 21 20 22 25 24 23 23 25 24 25
14 13 11 9 7 7 6 12 11 10 8 7 7 9 11 11 13 12 9 6 6 9 10 12 19 23 19 16 18 18 22 28 29 23 22 21 22 23 23 22 22 26 27
11 7 7 11 13 12 10 8 7 11 10 10 11 11 12 14 17 14 6 10 17 20 21 17 15 12 10 13 16 18 19 22 24 24 22 20 22 21 20 18 15 11 8
12 7 11 11 15 20 19 13 8 4 6 13 16 16 16 10 13 11 8 10 9 10 9 4 4 4 1 3 5 7 12 16 21 22 20 17 20 22 18 21 28 34 34
Wind_Direction_500mb
217 220 224 243 278 251 244 247 247 235 242 242 218 210 204 214 214 222 223 212 213 216 221 215 214 213 209 209 209 209 214 216 214 208 207 207 200 193 188 188 194 191 185
235 238 242 249 263 255 241 242 250 239 244 237 237 229 214 210 214 224 236 224 210 221 228 220 220 221 217 215 218 216 220 222 222 215 222 223 222 208 203 200 199 206 202
243 237 238 238 253 261 240 241 248 240 229 220 226 227 225 218 215 220 229 227 225 232 228 220 225 227 225 220 224 224 226 226 224 220 223 229 228 227 216 213 210 210 216
255 243 243 246 249 248 244 240 239 236 223 215 209 209 211 205 199 219 216 224 225 221 227 225 227 230 231 225 224 225 231 234 232 228 232 234 231 230 227 223 222 218 221
253 240 249 250 250 244 236 226 228 227 223 213 205 203 215 219 207 212 218 226 222 231 225 234 226 228 232 232 225 225 225 244 232 238 243 246 237 233 232 229 228 225 224
255 243 243 247 245 237 224 220 219 225 213 199 200 204 204 218 217 220 230 228 230 229 239 231 230 230 234 232 226 226 233 256 256 241 249 242 240 235 236 234 232 231 228
256 256 251 249 247 233 227 222 220 222 213 206 211 209 222 229 223 226 222 232 238 240 239 233 230 244 237 233 227 237 237 251 250 245 251 240 245 237 242 239 236 231 232
252 253 254 250 249 237 229 224 214 217 220 211 209 208 207 222 223 221 232 247 254 251 255 250 249 254 237 238 238 236 249 250 247 240 245 243 241 242 243 240 241 234 232
259 258 259 249 243 238 227 226 220 219 217 214 207 201 195 211 186 212 230 244 258 262 261 258 255 249 242 239 236 242 263 249 245 240 241 248 240 244 245 238 238 238 232
253 250 248 246 239 233 230 225 223 224 219 216 211 212 215 181 186 188 191 228 266 274 264 260 258 249 246 243 247 252 259 239 241 243 242 247 243 244 248 243 241 236 236
255 243 240 240 234 229 224 222 222 223 220 223 223 225 226 230 229 241 236 260 292 293 278 263 253 246 248 245 246 249 241 235 239 239 240 247 244 245 240 240 237 234 231
245 221 222 235 234 225 222 220 221 224 224 226 227 230 231 225 228 229 239 237 276 284 279 265 243 242 245 246 248 247 238 235 237 237 238 242 241 245 237 235 238 236 238
220 210 218 234 232 222 220 223 225 224 224 229 229 230 233 235 234 230 231 229 265 272 270 267 236 246 245 245 249 247 235 236 241 234 231 239 244 244 241 243 242 245 242
110 199 213 226 227 223 222 224 226 227 228 231 230 232 235 233 229 236 225 228 263 270 253 257 237 235 244 250 249 250 242 239 238 230 238 245 242 242 243 246 244 238 232
19 180 207 228 225 224 222 220 227 228 227 232 230 226 229 230 227 218 214 218 244 273 260 255 235 236 232 238 239 244 243 245 240 234 236 236 238 247 239 237 234 233 235
31 313 213 219 220 213 212 216 221 224 227 234 215 219 222 227 223 225 214 220 239 257 267 257 252 257 242 227 229 233 243 234 231 225 248 245 246 245 237 231 231 230 232
42 65 94 115 170 198 203 200 211 221 226 221 216 221 222 222 221 214 216 217 240 256 257 243 235 237 220 233 229 217 243 238 235 225 246 241 239 229 220 217 218 224 229
47 69 66 77 95 123 164 180 189 200 206 196 206 218 220 212 188 195 219 224 230 237 252 253 245 232 228 233 264 213 205 235 230 235 237 228 221 220 220 224 232 236 235
66 74 81 86 82 101 116 132 166 192 205 194 188 188 185 181 200 216 229 220 201 191 182 214 212 239 230 206 222 222 225 226 221 232 221 223 222 226 231 234 233 232 237
85 87 87 88 93 94 91 94 160 176 172 170 171 179 183 196 195 180 191 208 227 247 245 214 189 176 204 238 238 245 241 226 216 215 213 220 225 229 231 234 240 243 244
111 96 87 91 99 104 100 101 127 156 162 165 165 168 163 166 176 189 211 230 222 225 221 228 242 226 246 244 234 237 237 227 212 212 219 220 226 238 243 244 247 250 252
128 113 109 97 104 114 117 119 115 131 156 188 219 237 251 252 246 244 247 247 244 244 252 253 251 249 251 244 226 216 218 220 208 205 196 217 237 237 240 244 254 263 265
138 134 121 113 107 105 117 113 117 157 150 134 149 190 211 214 211 222 260 266 277 254 258 264 253 244 238 239 229 235 223 225 225 224 233 234 235 239 243 256 263 270 279
151 150 149 152 158 153 128 91 61 70 96 115 115 95 95 101 98 85 71 72 108 107 90 127 200 213 207 221 238 231 223 223 224 219 221 236 227 238 248 258 274 285 292
146 145 165 169 168 165 131 125 89 73 75 115 107 107 104 104 98 95 105 133 129 113 111 124 140 155 179 199 211 219 225 228 224 227 224 221 220 234 249 268 268 261 221
174 177 194 183 163 156 163 173 174 172 220 165 148 141 130 123 117 109 119 116 117 112 112 115 188 210 246 296 291 269 249 234 242 255 257 253 245 253 255 242 254 259 256
Wind_Speed_850mb
31 32 28 19 15 18 20 17 17 22 20 22 20 22 22 39 48 43 38 39 30 28 26 27 26 27 26 25 26 25 24 22 24 21 22 20 20 20 19 20 17 15 14
38 41 44 40 27 25 27 26 19 23 20 25 24 19 22 30 46 39 36 36 34 29 29 31 30 30 28 28 28 28 27 26 25 23 21 23 23 22 21 20 20 17 16
42 48 45 43 32 24 33 31 26 23 20 24 19 22 19 28 38 41 41 43 44 33 35 34 33 33 31 28 29 29 29 30 26 27 27 27 28 27 26 24 21 19 19
33 42 42 42 37 34 34 35 31 27 26 22 19 19 17 16 30 31 34 39 41 36 35 39 38 37 35 34 32 29 29 30 28 31 29 31 32 32 32 28 26 23 22
27 36 37 35 34 36 35 37 34 30 30 26 21 16 16 17 15 21 25 35 33 30 32 35 42 40 40 36 34 33 32 29 33 36 34 33 36 34 35 35 32 29 27
31 35 38 35 31 35 37 41 38 31 30 26 26 19 14 19 18 21 25 27 29 29 31 37 43 43 44 42 38 39 41 36 35 39 40 41 36 37 36 38 37 34 32
34 36 37 37 36 36 42 41 39 37 36 32 30 24 18 18 17 22 27 26 31 33 34 40 38 40 50 49 46 45 46 42 41 40 34 39 38 36 38 39 41 38 36
38 38 42 41 40 41 45 44 47 46 40 42 32 22 17 24 22 21 25 25 32 36 38 39 45 41 51 52 53 44 44 51 47 41 37 38 37 36 37 40 40 40 38
43 45 45 44 44 44 47 46 50 51 44 44 41 24 14 14 16 18 21 22 27 32 38 40 46 45 45 54 57 54 52 56 47 44 44 38 40 36 36 35 39 40 39
42 44 41 38 43 45 49 49 49 46 50 43 45 40 21 13 12 12 10 10 20 31 37 43 42 41 45 52 57 61 55 58 50 48 45 41 40 38 33 33 35 38 42
33 46 46 39 39 44 47 49 51 52 50 50 47 46 43 35 26 21 15 15 25 32 35 36 36 38 40 44 46 49 43 44 46 52 46 37 33 35 36 34 33 38 40
21 31 36 35 32 40 45 49 49 48 44 49 50 47 43 41 36 29 27 17 30 39 34 33 33 32 34 39 40 41 42 41 41 46 45 39 37 41 36 32 30 31 33
9 22 28 29 32 35 41 45 47 50 47 47 50 48 46 41 36 30 28 21 25 37 28 21 27 26 26 29 30 32 34 39 40 44 43 36 34 36 37 32 28 30 31
4 10 17 18 22 29 35 41 45 47 48 47 49 51 48 45 41 36 27 19 25 30 24 21 24 20 18 21 24 27 31 32 37 32 36 36 36 36 37 35 33 32 31
2 4 8 12 15 21 29 35 37 41 42 44 50 48 46 44 40 37 31 31 29 29 24 30 30 19 29 23 19 21 21 28 25 29 28 26 27 29 33 31 29 30 34
14 3 4 6 10 16 23 29 29 30 35 38 38 42 42 41 42 39 44 37 31 30 36 24 20 23 25 30 23 20 25 31 29 22 27 26 27 27 26 27 27 25 25
17 13 7 6 5 15 20 23 25 26 30 26 39 41 40 41 36 33 40 32 24 31 29 29 20 21 25 30 30 19 16 25 27 20 28 24 23 24 23 22 22 23 23
18 18 17 16 15 13 16 19 23 25 29 29 31 32 33 38 39 30 27 26 33 37 23 22 19 26 28 22 17 14 13 20 17 21 26 22 21 22 21 21 22 23 23
20 22 20 16 19 16 14 14 13 21 20 20 21 23 23 24 22 30 29 30 27 23 11 8 10 14 13 15 12 16 20 23 22 30 28 29 26 25 26 24 23 23 23
24 24 24 24 21 17 14 9 6 17 22 25 29 30 29 33 34 26 24 23 22 14 16 13 8 4 10 12 17 18 23 24 35 30 28 28 28 28 28 27 27 26 25
22 21 21 23 21 19 18 12 9 15 23 28 29 27 22 23 23 22 23 21 19 18 19 20 18 14 16 19 20 27 26 21 19 22 22 21 20 21 22 23 23 24 23
16 14 14 13 12 12 14 12 9 8 8 6 8 13 16 16 19 20 20 22 22 20 23 16 18 26 30 35 34 28 25 26 21 21 18 17 19 22 21 19 21 22 22
13 11 13 11 11 11 11 10 9 8 8 8 7 7 9 10 14 13 13 11 14 16 17 24 21 21 23 24 26 27 27 31 29 21 20 22 25 24 23 23 25 24 25
14 13 11 9 7 7 6 12 11 10 8 7 7 9 11 11 13 12 9 6 6 9 10 12 19 23 19 16 18 18 22 28 29 23 22 21 22 23 23 22 22 26 27
11 7 7 11 13 12 10 8 7 11 10 10 11 11 12 14 17 14 6 10 17 20 21 17 15 12 10 13 16 18 19 22 24 24 22 20 22 21 20 18 15 11 8
12 7 11 11 15 20 19 13 8 4 6 13 16 16 16 10 13 11 8 10 9 10 9 4 4 4 1 3 5 7 12 16 21 22 20 17 20 22 18 21 28 34 34
Wind_Direction_850mb
217 220 224 243 278 251 244 247 247 235 242 242 218 210 204 214 214 222 223 212 213 216 221 215 214 213 209 209 209 209 214 216 214 208 207 207 200 193 188 188 194 191 185
235 238 242 249 263 255 241 242 250 239 244 237 237 229 214 210 214 224 236 224 210 221 228 220 220 221 217 215 218 216 220 222 222 215 222 223 222 208 203 200 199 206 202
243 237 238 238 253 261 240 241 248 240 229 220 226 227 225 218 215 220 229 227 225 232 228 220 225 227 225 220 224 224 226 226 224 220 223 229 228 227 216 213 210 210 216
255 243 243 246 249 248 244 240 239 236 223 215 209 209 211 205 199 219 216 224 225 221 227 225 227 230 231 225 224 225 231 234 232 228 232 234 231 230 227 223 222 218 221
253 240 249 250 250 244 236 226 228 227 223 213 205 203 215 219 207 212 218 226 222 231 225 234 226 228 232 232 225 225 225 244 232 238 243 246 237 233 232 229 228 225 224
255 243 243 247 245 237 224 220 219 225 213 199 200 204 204 218 217 220 230 228 230 229 239 231 230 230 234 232 226 226 233 256 256 241 249 242 240 235 236 234 232 231 228
256 256 251 249 247 233 227 222 220 222 213 206 211 209 222 229 223 226 222 232 238 240 239 233 230 244 237 233 227 237 237 251 250 245 251 240 245 237 242 239 236 231 232
252 253 254 250 249 237 229 224 214 217 220 211 209 208 207 222 223 221 232 247 254 251 255 250 249 254 237 238 238 236 249 250 247 240 245 243 241 242 243 240 241 234 232
259 258 259 249 243 238 227 226 220 219 217 214 207 201 195 211 186 212 230 244 258 262 261 258 255 249 242 239 236 242 263 249 245 240 241 248 240 244 245 238 238 238 232
253 250 248 246 239 233 230 225 223 224 219 216 211 212 215 181 186 188 191 228 266 274 264 260 258 249 246 243 247 252 259 239 241 243 242 247 243 244 248 243 241 236 236
255 243 240 240 234 229 224 222 222 223 220 223 223 225 226 230 229 241 236 260 292 293 278 263 253 246 248 245 246 249 241 235 239 239 240 247 244 245 240 240 237 234 231
245 221 222 235 234 225 222 220 221 224 224 226 227 230 231 225 228 229 239 237 276 284 279 265 243 242 245 246 248 247 238 235 237 237 238 242 241 245 237 235 238 236 238
220 210 218 234 232 222 220 223 225 224 224 229 229 230 233 235 234 230 231 229 265 272 270 267 236 246 245 245 249 247 235 236 241 234 231 239 244 244 241 243 242 245 242
110 199 213 226 227 223 222 224 226 227 228 231 230 232 235 233 229 236 225 228 263 270 253 257 237 235 244 250 249 250 242 239 238 230 238 245 242 242 243 246 244 238 232
19 180 207 228 225 224 222 220 227 228 227 232 230 226 229 230 227 218 214 218 244 273 260 255 235 236 232 238 239 244 243 245 240 234 236 236 238 247 239 237 234 233 235
31 313 213 219 220 213 212 216 221 224 227 234 215 219 222 227 223 225 214 220 239 257 267 257 252 257 242 227 229 233 243 234 231 225 248 245 246 245 237 231 231 230 232
42 65 94 115 170 198 203 200 211 221 226 221 216 221 222 222 221 214 216 217 240 256 257 243 235 237 220 233 229 217 243 238 235 225 246 241 239 229 220 217 218 224 229
47 69 66 77 95 123 164 180 189 200 206 196 206 218 220 212 188 195 219 224 230 237 252 253 245 232 228 233 264 213 205 235 230 235 237 228 221 220 220 224 232 236 235
66 74 81 86 82 101 116 132 166 192 205 194 188 188 185 181 200 216 229 220 201 191 182 214 212 239 230 206 222 222 225 226 221 232 221 223 222 226 231 234 233 232 237
85 87 87 88 93 94 91 94 160 176 172 170 171 179 183 196 195 180 191 208 227 247 245 214 189 176 204 238 238 245 241 226 216 215 213 220 225 229 231 234 240 243 244
111 96 87 91 99 104 100 101 127 156 162 165 165 168 163 166 176 189 211 230 222 225 221 228 242 226 246 244 234 237 237 227 212 212 219 220 226 238 243 244 247 250 252
128 113 109 97 104 114 117 119 115 131 156 188 219 237 251 252 246 244 247 247 244 244 252 253 251 249 251 244 226 216 218 220 208 205 196 217 237 237 240 244 254 263 265
138 134 121 113 107 105 117 113 117 157 150 134 149 190 211 214 211 222 260 266 277 254 258 264 253 244 238 239 229 235 223 225 225 224 233 234 235 239 243 256 263 270 279
151 150 149 152 158 153 128 91 61 70 96 115 115 95 95 101 98 85 71 72 108 107 90 127 200 213 207 221 238 231 223 223 224 219 221 236 227 238 248 258 274 285 292
146 145 165 169 168 165 131 125 89 73 75 115 107 107 104 104 98 95 105 133 129 113 111 124 140 155 179 199 211 219 225 228 224 227 224 221 220 234 249 268 268 261 221
174 177 194 183 163 156 163 173 174 172 220 165 148 141 130 123 117 109 119 116 117 112 112 115 188 210 246 296 291 269 249 234 242 255 257 253 245 253 255 242 254 259 256